EA5AFP-10 Weather Reports


time (UTC)temp
C
wind
direction
speed
KPH
gust
KPH
rain 1hr
cm
rain 24hr
cm
rain mn
cm
humidity
%
barometer
mb
20260504050611 15 292 3.2 4.8 0.00 0.00 0.00 9 1008.1
20260504050555 14 292 0.0 4.8 0.00 0.00 0.00 9 1008.0
20260504050126 15 0 0.0 0.0 0.00 0.00 0.00 9 1008.1
20260504045701 15 0 0.0 0.0 0.00 0.00 0.00 9 1008.0
20260504045350 15 0 0.0 0.0 0.00 0.00 0.00 9 1008.1
20260504044932 15 292 0.0 1.6 0.00 0.00 0.00 9 1008.0
20260504044446 15 292 0.0 1.6 0.00 0.00 0.00 9 1008.1
20260504044045 15 292 1.6 3.2 0.00 0.00 0.00 9 1008.2
20260504043615 15 292 1.6 3.2 0.00 0.00 0.00 9 1008.2
20260504043559 15 292 1.6 3.2 0.00 0.00 0.00 9 1008.2
20260504043130 15 292 3.2 3.2 0.00 0.00 0.00 9 1008.3
20260504042708 15 315 3.2 3.2 0.00 0.00 0.00 9 1008.3
20260504042705 15 315 3.2 3.2 0.00 0.00 0.00 9 1008.3
20260504042411 15 315 3.2 3.2 0.00 0.00 0.00 9 1008.3
20260504041929 16 270 1.6 3.2 0.00 0.00 0.00 9 1008.2
20260504041441 16 0 0.0 1.6 0.00 0.00 0.00 9 1008.3
20260504041040 16 0 0.0 0.0 0.00 0.00 0.00 9 1008.3
20260504040554 16 202 0.0 1.6 0.00 0.00 0.00 9 1008.2
20260504040126 16 157 0.0 3.2 0.00 0.00 0.00 9 1008.3
20260504035704 16 0 0.0 0.0 0.00 0.00 0.00 9 1008.4
20260504035702 16 0 0.0 0.0 0.00 0.00 0.00 9 1008.4
20260504035700 16 0 0.0 0.0 0.00 0.00 0.00 9 1008.4
20260504035359 16 0 0.0 0.0 0.00 0.00 0.00 9 1008.3
20260504034957 16 0 0.0 1.6 0.00 0.00 0.00 9 1008.4
20260504034556 16 0 0.0 1.6 0.00 0.00 0.00 9 1008.4
20260504034102 16 202 0.0 3.2 0.00 0.00 0.00 9 1008.4
20260504033611 16 0 0.0 1.6 0.00 0.00 0.00 9 1008.4
20260504033123 16 0 0.0 0.0 0.00 0.00 0.00 9 1008.8
20260504032711 16 225 0.0 1.6 0.00 0.00 0.00 9 1008.7
20260504032434 16 0 0.0 1.6 0.00 0.00 0.00 9 1008.8
20260504032255 16 0 0.0 0.0 0.00 0.00 0.00 9 1008.8
20260504031957 16 0 0.0 0.0 0.00 0.00 0.00 9 1008.9
20260504031503 16 0 0.0 0.0 0.00 0.00 0.00 9 1009.1
20260504031402 16 0 0.0 0.0 0.00 0.00 0.00 9 1009.0
20260504031024 16 0 0.0 0.0 0.00 0.00 0.00 9 1009.0
20260504030608 16 202 1.6 3.2 0.00 0.00 0.00 9 1009.0
20260504030535 16 202 1.6 3.2 0.00 0.00 0.00 9 1009.0
20260504030119 16 0 0.0 0.0 0.00 0.00 0.00 9 1009.0
20260504025709 16 0 0.0 0.0 0.00 0.00 0.00 9 1009.0
20260504025705 16 0 0.0 0.0 0.00 0.00 0.00 9 1009.0
20260504025449 16 0 0.0 0.0 0.00 0.00 0.00 9 1009.1
20260504025007 16 202 1.6 3.2 0.00 0.00 0.00 9 1009.2
20260504024703 16 0 0.0 0.0 0.00 0.00 0.00 9 1009.2
20260504024517 16 0 0.0 0.0 0.00 0.00 0.00 9 1009.1
20260504024047 16 0 0.0 0.0 0.00 0.00 0.00 9 1009.2
20260504023703 16 0 0.0 0.0 0.00 0.00 0.00 9 1009.3
20260504023629 16 0 0.0 0.0 0.00 0.00 0.00 9 1009.3
20260504023204 16 0 0.0 0.0 0.00 0.00 0.00 9 1009.2
20260504022712 16 0 0.0 0.0 0.00 0.00 0.00 9 1009.2
20260504022709 16 0 0.0 0.0 0.00 0.00 0.00 9 1009.2
20260504022446 16 0 0.0 0.0 0.00 0.00 0.00 9 1009.2
20260504022255 16 0 0.0 0.0 0.00 0.00 0.00 9 1009.2
20260504021850 16 0 0.0 0.0 0.00 0.00 0.00 9 1009.3
20260504021430 16 0 0.0 0.0 0.00 0.00 0.00 9 1009.1
20260504021025 16 0 0.0 0.0 0.00 0.00 0.00 9 1009.2
20260504020641 16 0 0.0 0.0 0.00 0.00 0.00 9 1009.1
20260504020605 16 0 0.0 0.0 0.00 0.00 0.00 9 1009.2
20260504020140 16 0 0.0 0.0 0.00 0.00 0.00 9 1009.2
20260504015648 16 0 0.0 0.0 0.00 0.00 0.00 9 1009.2
20260504015646 16 0 0.0 0.0 0.00 0.00 0.00 9 1009.2
20260504015358 16 0 0.0 0.0 0.00 0.00 0.00 9 1009.1
20260504014924 16 0 0.0 0.0 0.00 0.00 0.00 9 1009.1
20260504014705 16 0 0.0 0.0 0.00 0.00 0.00 9 1009.1
20260504014454 16 0 0.0 0.0 0.00 0.00 0.00 9 1009.1
20260504014052 16 0 0.0 0.0 0.00 0.00 0.00 9 1009.2
20260504013706 16 0 0.0 1.6 0.00 0.00 0.00 9 1009.2
20260504013632 16 0 0.0 0.0 0.00 0.00 0.00 9 1009.1
20260504013206 16 0 0.0 1.6 0.00 0.00 0.00 9 1009.2
20260504012712 16 0 0.0 0.0 0.00 0.00 0.00 9 1009.0
20260504012430 16 0 0.0 0.0 0.00 0.00 0.00 9 1009.0
20260504012407 16 0 0.0 0.0 0.00 0.00 0.00 9 1009.1
20260504011912 16 0 0.0 0.0 0.00 0.00 0.00 9 1009.2
20260504011439 16 0 0.0 0.0 0.00 0.00 0.00 9 1009.1
20260504010654 16 0 0.0 0.0 0.00 0.00 0.00 9 1009.0
20260504010616 16 0 0.0 0.0 0.00 0.00 0.00 9 1009.0
20260504005657 16 0 0.0 0.0 0.00 0.00 0.00 9 1009.0
20260504005413 16 0 0.0 0.0 0.00 0.00 0.00 9 1009.1
20260504005328 16 0 0.0 0.0 0.00 0.00 0.00 9 1009.1
20260504004941 16 0 0.0 0.0 0.00 0.00 0.00 9 1008.9
20260504004516 16 0 0.0 0.0 0.00 0.00 0.00 9 1008.8
20260504004452 16 0 0.0 0.0 0.00 0.00 0.00 9 1008.9
20260504004051 16 0 0.0 0.0 0.00 0.00 0.00 9 1009.0
20260504003621 16 0 0.0 0.0 0.00 0.00 0.00 9 1008.9
20260504003604 16 0 0.0 0.0 0.00 0.00 0.00 9 1009.2
20260504003136 16 247 0.0 1.6 0.00 0.00 0.00 9 1008.9
20260504002711 16 247 0.0 1.6 0.00 0.00 0.00 9 1009.3
20260504002514 16 247 0.0 1.6 0.00 0.00 0.00 9 1009.3
20260504002426 16 247 0.0 1.6 0.00 0.00 0.00 9 1009.3
20260504002003 16 0 0.0 0.0 0.00 0.00 0.00 9 1009.3
20260504001530 16 0 0.0 0.0 0.00 0.00 0.00 9 1009.4
20260504001043 16 0 0.0 0.0 0.00 0.00 0.00 9 1009.3
20260504000701 16 0 0.0 0.0 0.00 0.00 0.00 9 1009.4
20260504000626 16 0 0.0 0.0 0.00 0.00 0.00 9 1009.4
20260504000201 16 0 0.0 0.0 0.00 0.00 0.00 9 1009.5
20260503235709 16 0 0.0 0.0 0.00 0.00 0.00 9 1009.6
20260503235706 16 0 0.0 0.0 0.00 0.00 0.00 9 1009.6
20260503235411 16 0 0.0 0.0 0.00 0.00 0.00 9 1009.5
20260503235338 16 0 0.0 0.0 0.00 0.00 0.00 9 1009.5
20260503235000 16 0 0.0 0.0 0.00 0.00 0.00 9 1009.6
20260503234514 16 0 0.0 0.0 0.00 0.00 0.00 9 1009.7
20260503234452 16 0 0.0 0.0 0.00 0.00 0.00 9 1009.8
20260503234050 16 0 0.0 0.0 0.00 0.00 0.00 9 1009.7
20260503233620 16 0 0.0 0.0 0.00 0.00 0.00 9 1009.8
20260503233602 16 0 0.0 1.6 0.00 0.00 0.00 9 1009.8
20260503233135 16 0 0.0 0.0 0.00 0.00 0.00 9 1009.9
20260503232713 16 0 0.0 0.0 0.00 0.00 0.00 9 1009.8
20260503232710 16 0 0.0 0.0 0.00 0.00 0.00 9 1009.8
20260503232513 16 0 0.0 0.0 0.00 0.00 0.00 9 1009.8
20260503232052 16 0 0.0 0.0 0.00 0.00 0.00 9 1010.0
20260503231659 16 0 0.0 0.0 0.00 0.00 0.00 9 1010.0
20260503231551 16 0 0.0 0.0 0.00 0.00 0.00 9 1009.9
20260503231120 16 0 0.0 0.0 0.00 0.00 0.00 9 1010.0
20260503230636 16 270 1.6 3.2 0.00 0.00 0.00 9 1010.0
20260503230202 16 270 1.6 3.2 0.00 0.00 0.00 9 1009.9
20260503225706 16 292 1.6 3.2 0.00 0.00 0.00 9 1009.9
20260503225321 16 270 3.2 3.2 0.00 0.00 0.00 9 1009.8
20260503224910 16 292 1.6 3.2 0.00 0.00 0.00 9 1009.9
20260503224455 16 315 3.2 4.8 0.00 0.00 0.00 9 1009.9
20260503224025 16 292 3.2 3.2 0.00 0.00 0.00 9 1009.8
20260503223533 16 292 1.6 3.2 0.00 0.00 0.00 9 1009.8
20260503223123 16 292 3.2 3.2 0.00 0.00 0.00 9 1009.9
20260503222719 16 292 3.2 3.2 0.00 0.00 0.00 9 1010.0
20260503222715 16 292 3.2 3.2 0.00 0.00 0.00 9 1010.0
20260503222406 16 315 3.2 3.2 0.00 0.00 0.00 9 1009.9
20260503221951 16 315 1.6 3.2 0.00 0.00 0.00 9 1009.9
20260503221442 16 0 0.0 0.0 0.00 0.00 0.00 9 1009.8
20260503221041 16 0 0.0 0.0 0.00 0.00 0.00 9 1009.8
20260503220554 16 0 0.0 0.0 0.00 0.00 0.00 9 1010.0
20260503220126 16 112 4.8 4.8 0.00 0.00 0.00 9 1009.8
20260503215704 16 112 4.8 4.8 0.00 0.00 0.00 9 1009.7
20260503215701 16 112 4.8 4.8 0.00 0.00 0.00 9 1009.7
20260503215406 16 112 4.8 4.8 0.00 0.00 0.00 9 1009.8
20260503214943 16 112 1.6 3.2 0.00 0.00 0.00 9 1009.9
20260503214521 16 112 0.0 3.2 0.00 0.00 0.00 9 1009.9
20260503214053 16 0 0.0 1.6 0.00 0.00 0.00 9 1010.1
20260503213615 16 247 1.6 3.2 0.00 0.00 0.00 9 1010.2
20260503213131 16 202 1.6 3.2 0.00 0.00 0.00 9 1010.2
20260503212706 17 90 0.0 1.6 0.00 0.00 0.00 9 1010.0
20260503212403 17 90 0.0 1.6 0.00 0.00 0.00 9 1010.1
20260503212319 17 90 0.0 1.6 0.00 0.00 0.00 9 1010.1
20260503211929 17 90 3.2 4.8 0.00 0.00 0.00 9 1010.0
20260503211442 17 0 0.0 0.0 0.00 0.00 0.00 9 1010.2
20260503211040 17 270 1.6 3.2 0.00 0.00 0.00 9 1010.4
20260503210554 17 0 0.0 0.0 0.00 0.00 0.00 9 1010.3
20260503210126 17 0 0.0 0.0 0.00 0.00 0.00 9 1010.2
20260503205704 17 225 0.0 1.6 0.00 0.00 0.00 9 1010.1
20260503205701 17 225 0.0 1.6 0.00 0.00 0.00 9 1010.1
20260503205425 17 247 0.0 1.6 0.00 0.00 0.00 9 1010.2
20260503205409 17 225 0.0 1.6 0.00 0.00 0.00 9 1010.3
20260503204949 16 0 0.0 1.6 0.00 0.00 0.00 9 1010.0
20260503204531 17 270 1.6 3.2 0.00 0.00 0.00 9 1010.0
20260503204046 16 292 1.6 3.2 0.00 0.00 0.00 9 1010.0
20260503203706 16 247 0.0 1.6 0.00 0.00 0.00 9 1010.0
20260503203629 16 247 0.0 1.6 0.00 0.00 0.00 9 1010.0
20260503203204 16 157 1.6 3.2 0.00 0.00 0.00 9 1009.9
20260503202712 16 0 0.0 0.0 0.00 0.00 0.00 9 1009.7
20260503202709 16 0 0.0 0.0 0.00 0.00 0.00 9 1009.7
20260503202407 16 0 0.0 0.0 0.00 0.00 0.00 9 1009.7
20260503201940 16 0 0.0 0.0 0.00 0.00 0.00 9 1009.8
20260503201502 16 90 3.2 3.2 0.00 0.00 0.00 9 1009.3
20260503201051 16 90 3.2 3.2 0.00 0.00 0.00 9 1009.3
20260503200611 16 67 3.2 4.8 0.00 0.00 0.00 9 1009.3
20260503200127 16 67 1.6 3.2 0.00 0.00 0.00 9 1009.5
20260503195702 16 67 3.2 3.2 0.00 0.00 0.00 9 1009.2
20260503195443 16 67 3.2 3.2 0.00 0.00 0.00 9 1009.3
20260503194947 16 67 1.6 3.2 0.00 0.00 0.00 9 1009.1
20260503194529 16 90 3.2 3.2 0.00 0.00 0.00 9 1008.9
20260503194044 16 112 3.2 4.8 0.00 0.00 0.00 9 1008.8
20260503193705 16 112 3.2 4.8 0.00 0.00 0.00 9 1008.8
20260503193628 16 112 3.2 4.8 0.00 0.00 0.00 9 1008.8
20260503193202 16 112 4.8 6.4 0.00 0.00 0.00 9 1008.7
20260503192711 16 112 4.8 9.7 0.00 0.00 0.00 9 1008.6
20260503192708 16 112 4.8 9.7 0.00 0.00 0.00 9 1008.6
20260503192349 16 90 4.8 6.4 0.00 0.00 0.00 9 1008.7
20260503191930 16 112 4.8 6.4 0.00 0.00 0.00 9 1008.7
20260503191509 16 112 4.8 6.4 0.00 0.00 0.00 9 1008.6
20260503191043 16 112 4.8 6.4 0.00 0.00 0.00 9 1008.6
20260503190702 17 90 3.2 4.8 0.00 0.00 0.00 9 1008.8
20260503190625 17 90 3.2 4.8 0.00 0.00 0.00 9 1008.8
20260503190200 17 112 3.2 4.8 0.00 0.00 0.00 9 1008.8
20260503185705 17 112 4.8 6.4 0.00 0.00 0.00 9 1008.8
20260503185332 17 112 6.4 9.7 0.00 0.00 0.00 9 1008.8
20260503184932 17 112 4.8 4.8 0.00 0.00 0.00 9 1009.0
20260503184448 17 90 0.0 1.6 0.00 0.00 0.00 9 1009.0
20260503184044 17 90 1.6 3.2 0.00 0.00 0.00 9 1008.9
20260503183615 17 112 3.2 4.8 0.00 0.00 0.00 9 1008.7
20260503183129 17 90 4.8 6.4 0.00 0.00 0.00 9 1008.7
20260503182705 17 112 1.6 3.2 0.00 0.00 0.00 9 1008.7
20260503182323 17 90 3.2 4.8 0.00 0.00 0.00 9 1008.7
20260503181923 17 112 3.2 6.4 0.00 0.00 0.00 9 1008.7
20260503181439 17 112 4.8 4.8 0.00 0.00 0.00 9 1008.9
20260503181036 17 112 4.8 9.7 0.00 0.00 0.00 9 1008.7
20260503180549 17 112 4.8 4.8 0.00 0.00 0.00 8 1008.7
20260503180121 17 90 4.8 9.7 0.00 0.00 0.00 8 1008.7
20260503175656 17 112 8.0 12.9 0.00 0.00 0.00 8 1008.6
20260503175424 17 90 6.4 9.7 0.00 0.00 0.00 8 1008.6
20260503175002 17 112 4.8 9.7 0.00 0.00 0.00 8 1008.8
20260503174512 17 112 6.4 9.7 0.00 0.00 0.00 8 1008.4
20260503174042 17 112 9.7 12.9 0.00 0.00 0.00 8 1008.4
20260503173606 17 112 9.7 9.7 0.00 0.00 0.00 8 1008.5
20260503173139 17 112 8.0 12.9 0.00 0.00 0.00 8 1008.6
20260503172716 18 112 9.7 12.9 0.00 0.00 0.00 8 1008.6
20260503172713 18 112 9.7 12.9 0.00 0.00 0.00 8 1008.6
20260503172352 18 112 4.8 9.7 0.00 0.00 0.00 8 1008.6
20260503172253 18 112 4.8 9.7 0.00 0.00 0.00 8 1008.6
20260503171902 18 112 4.8 6.4 0.00 0.00 0.00 8 1008.9
20260503171455 18 135 6.4 9.7 0.00 0.00 0.00 8 1008.9
20260503171358 18 112 8.0 9.7 0.00 0.00 0.00 8 1008.8
20260503171016 18 90 6.4 9.7 0.00 0.00 0.00 8 1009.0
20260503170531 18 112 4.8 6.4 0.00 0.00 0.00 8 1008.7
20260503170116 18 112 9.7 12.9 0.00 0.00 0.00 8 1008.8
20260503160120 18 112 9.7 14.5 0.00 0.00 0.00 8 1008.6
20260503150615 18 112 12.9 16.1 0.00 0.00 0.00 8 1009.1
20260503150557 18 112 9.7 14.5 0.00 0.00 0.00 8 1009.1
20260503150130 18 135 14.5 20.9 0.00 0.00 0.00 8 1009.2
20260503140154 18 135 9.7 16.1 0.00 0.00 0.00 8 1009.9
20260503131041 18 90 11.3 14.5 0.00 0.00 0.00 8 1009.9
20260503130700 18 112 12.9 19.3 0.00 0.00 0.00 7 1009.9
20260503130624 18 112 12.9 19.3 0.00 0.00 0.00 7 1009.9
20260503130158 19 112 12.9 16.1 0.00 0.00 0.00 7 1010.0
20260503110653 20 112 1.6 6.4 0.00 0.00 0.00 7 1010.6
20260503110218 19 67 4.8 6.4 0.00 0.00 0.00 7 1010.7
20260503110121 19 67 4.8 6.4 0.00 0.00 0.00 7 1010.7
20260503100132 18 112 8.0 9.7 0.00 0.00 0.00 8 1011.5
20260503090114 18 90 4.8 9.7 0.00 0.00 0.00 8 1011.6
20260503081527 17 112 3.2 4.8 0.00 0.00 0.00 8 1011.6
20260503081359 17 112 4.8 6.4 0.00 0.00 0.00 8 1011.7
20260503081107 17 112 6.4 9.7 0.00 0.00 0.00 8 1011.6
20260503080607 17 90 4.8 6.4 0.00 0.00 0.00 9 1011.7
20260503080532 17 90 4.8 6.4 0.00 0.00 0.00 9 1011.7
20260503080118 17 112 4.8 6.4 0.00 0.00 0.00 9 1011.6
20260503072709 17 202 0.0 1.6 0.00 0.00 0.00 9 1011.6
20260503072707 17 202 0.0 1.6 0.00 0.00 0.00 9 1011.6
20260503072334 17 202 0.0 1.6 0.00 0.00 0.00 9 1011.6
20260503071903 17 112 1.6 3.2 0.00 0.00 0.00 9 1011.5
20260503071536 17 112 0.0 1.6 0.00 0.00 0.00 9 1011.3
20260503071453 17 90 0.0 3.2 0.00 0.00 0.00 9 1011.4
20260503071019 17 90 3.2 4.8 0.00 0.00 0.00 9 1011.3
20260503070536 17 0 0.0 1.6 0.00 0.00 0.00 9 1011.2
20260503070118 17 90 0.0 3.2 0.00 0.00 0.00 9 1011.1
20260503060159 16 0 0.0 0.0 0.00 0.00 0.00 9 1011.1
20260503054950 16 0 0.0 0.0 0.00 0.00 0.00 9 1011.1
20260503054603 16 0 0.0 0.0 0.00 0.00 0.00 9 1011.0
20260503054531 16 0 0.0 0.0 0.00 0.00 0.00 9 1011.0
20260503054047 16 0 0.0 0.0 0.00 0.00 0.00 9 1011.0
20260503053705 16 202 0.0 1.6 0.00 0.00 0.00 9 1011.2
20260503053629 16 202 0.0 1.6 0.00 0.00 0.00 9 1011.2
20260503053205 16 0 0.0 0.0 0.00 0.00 0.00 9 1011.0
20260503052713 16 0 0.0 1.6 0.00 0.00 0.00 9 1011.2
20260503052710 16 0 0.0 1.6 0.00 0.00 0.00 9 1011.2
20260503052524 16 0 0.0 1.6 0.00 0.00 0.00 9 1011.2
20260503052427 16 0 0.0 0.0 0.00 0.00 0.00 9 1010.9
20260503051955 16 0 0.0 0.0 0.00 0.00 0.00 9 1011.0
20260503051617 16 202 0.0 3.2 0.00 0.00 0.00 9 1011.0
20260503051505 16 225 0.0 1.6 0.00 0.00 0.00 9 1010.9